Time,TemperatureF,DewpointF,PressureIn,WindDirection,WindDirectionDegrees,WindSpeedMPH,WindSpeedGustMPH,Humidity,HourlyPrecipIn,Conditions,Clouds,dailyrainin,SoftwareType,DateUTC
2013-01-08 00:00:00,12.0,8.0,30.55,NW,315,0.0,-999.0,79,0.00,,,0.00,Rainwise IP-100,2013-01-08 05:00:00,
2013-01-08 00:01:00,12.0,8.0,30.55,NW,315,0.0,-999.0,78,0.00,,,0.00,Rainwise IP-100,2013-01-08 05:01:00,
2013-01-08 00:06:00,12.0,8.0,30.54,NW,315,0.0,-999.0,78,0.00,,,0.00,Rainwise IP-100,2013-01-08 05:06:00,
2013-01-08 00:13:00,12.0,8.0,30.54,NW,315,0.0,-999.0,78,0.00,,,0.00,Rainwise IP-100,2013-01-08 05:13:00,
2013-01-08 00:18:00,12.0,8.0,30.53,NW,315,0.0,-999.0,78,0.00,,,0.00,Rainwise IP-100,2013-01-08 05:18:00,
2013-01-08 00:23:00,12.0,8.0,30.53,WNW,292,0.0,-999.0,78,0.00,,,0.00,Rainwise IP-100,2013-01-08 05:23:00,
2013-01-08 00:28:00,13.0,8.0,30.53,WNW,292,0.0,-999.0,78,0.00,,,0.00,Rainwise IP-100,2013-01-08 05:28:00,
2013-01-08 00:33:00,13.0,8.0,30.53,WNW,292,0.0,-999.0,78,0.00,,,0.00,Rainwise IP-100,2013-01-08 05:33:00,
2013-01-08 00:38:00,13.0,8.0,30.52,WNW,292,0.0,-999.0,78,0.00,,,0.00,Rainwise IP-100,2013-01-08 05:38:00,
2013-01-08 00:43:00,13.0,8.0,30.52,WNW,292,0.0,-999.0,78,0.00,,,0.00,Rainwise IP-100,2013-01-08 05:43:00,
2013-01-08 00:48:00,14.0,8.0,30.52,WSW,247,0.0,-999.0,77,0.00,,,0.00,Rainwise IP-100,2013-01-08 05:48:00,
2013-01-08 00:54:00,14.0,8.0,30.51,WSW,247,0.0,-999.0,77,0.00,,,0.00,Rainwise IP-100,2013-01-08 05:54:00,
2013-01-08 00:59:00,14.0,8.0,30.51,WNW,292,0.0,-999.0,77,0.00,,,0.00,Rainwise IP-100,2013-01-08 05:59:00,
2013-01-08 01:04:00,13.0,8.0,30.51,WNW,292,1.0,-999.0,78,0.00,,,0.00,Rainwise IP-100,2013-01-08 06:04:00,
2013-01-08 01:09:00,14.0,8.0,30.51,WNW,292,0.0,-999.0,77,0.00,,,0.00,Rainwise IP-100,2013-01-08 06:09:00,
2013-01-08 01:14:00,14.0,8.0,30.50,WNW,292,0.0,-999.0,77,0.00,,,0.00,Rainwise IP-100,2013-01-08 06:14:00,
2013-01-08 01:19:00,14.0,8.0,30.50,WNW,292,0.0,-999.0,77,0.00,,,0.00,Rainwise IP-100,2013-01-08 06:19:00,
2013-01-08 01:24:00,14.0,8.0,30.50,WNW,292,0.0,-999.0,77,0.00,,,0.00,Rainwise IP-100,2013-01-08 06:24:00,
2013-01-08 01:29:00,15.0,11.0,30.49,WNW,292,0.0,-999.0,77,0.00,,,0.00,Rainwise IP-100,2013-01-08 06:29:00,
2013-01-08 01:34:00,15.0,11.0,30.49,WNW,292,0.0,-999.0,77,0.00,,,0.00,Rainwise IP-100,2013-01-08 06:34:00,
2013-01-08 01:39:00,15.0,11.0,30.49,WNW,292,0.0,-999.0,77,0.00,,,0.00,Rainwise IP-100,2013-01-08 06:39:00,
2013-01-08 01:45:00,15.0,11.0,30.49,WNW,292,0.0,-999.0,78,0.00,,,0.00,Rainwise IP-100,2013-01-08 06:45:00,
2013-01-08 01:50:00,16.0,11.0,30.49,WNW,292,2.0,-999.0,78,0.00,,,0.00,Rainwise IP-100,2013-01-08 06:50:00,
2013-01-08 01:55:00,17.0,14.0,30.49,WNW,292,0.0,-999.0,76,0.00,,,0.00,Rainwise IP-100,2013-01-08 06:55:00,
2013-01-08 02:00:00,20.0,14.0,30.49,WSW,247,1.0,-999.0,75,0.00,,,0.00,Rainwise IP-100,2013-01-08 07:00:00,
2013-01-08 02:05:00,22.0,16.0,30.48,SW,225,0.0,-999.0,74,0.00,,,0.00,Rainwise IP-100,2013-01-08 07:05:00,
2013-01-08 02:10:00,23.0,16.0,30.48,SW,225,0.0,-999.0,73,0.00,,,0.00,Rainwise IP-100,2013-01-08 07:10:00,
2013-01-08 02:15:00,23.0,16.0,30.48,SW,225,0.0,-999.0,73,0.00,,,0.00,Rainwise IP-100,2013-01-08 07:15:00,
2013-01-08 02:20:00,23.0,16.0,30.48,SW,225,0.0,-999.0,73,0.00,,,0.00,Rainwise IP-100,2013-01-08 07:20:00,
2013-01-08 02:25:00,23.0,16.0,30.47,SW,225,0.0,-999.0,73,0.00,,,0.00,Rainwise IP-100,2013-01-08 07:25:00,
2013-01-08 02:30:00,22.0,16.0,30.47,SW,225,0.0,-999.0,74,0.00,,,0.00,Rainwise IP-100,2013-01-08 07:30:00,
2013-01-08 02:35:00,22.0,16.0,30.47,SW,225,0.0,-999.0,74,0.00,,,0.00,Rainwise IP-100,2013-01-08 07:35:00,
2013-01-08 02:40:00,21.0,14.0,30.47,SW,225,0.0,-999.0,74,0.00,,,0.00,Rainwise IP-100,2013-01-08 07:40:00,
2013-01-08 02:45:00,21.0,14.0,30.47,SW,225,0.0,-999.0,74,0.00,,,0.00,Rainwise IP-100,2013-01-08 07:45:00,
2013-01-08 02:50:00,20.0,14.0,30.47,SW,225,0.0,-999.0,75,0.00,,,0.00,Rainwise IP-100,2013-01-08 07:50:00,
2013-01-08 02:55:00,20.0,14.0,30.46,SW,225,0.0,-999.0,75,0.00,,,0.00,Rainwise IP-100,2013-01-08 07:55:00,
2013-01-08 03:00:00,20.0,14.0,30.46,SW,225,0.0,-999.0,75,0.00,,,0.00,Rainwise IP-100,2013-01-08 08:00:00,
2013-01-08 03:07:00,20.0,14.0,30.46,SW,225,0.0,-999.0,74,0.00,,,0.00,Rainwise IP-100,2013-01-08 08:07:00,
2013-01-08 03:12:00,19.0,14.0,30.45,SW,225,0.0,-999.0,74,0.00,,,0.00,Rainwise IP-100,2013-01-08 08:12:00,
2013-01-08 03:17:00,19.0,14.0,30.45,SW,225,0.0,-999.0,74,0.00,,,0.00,Rainwise IP-100,2013-01-08 08:17:00,
2013-01-08 03:22:00,20.0,14.0,30.45,SW,225,0.0,-999.0,74,0.00,,,0.00,Rainwise IP-100,2013-01-08 08:22:00,
2013-01-08 03:29:00,19.0,14.0,30.44,SW,225,0.0,-999.0,73,0.00,,,0.00,Rainwise IP-100,2013-01-08 08:29:00,
2013-01-08 03:34:00,19.0,14.0,30.44,SW,225,0.0,-999.0,73,0.00,,,0.00,Rainwise IP-100,2013-01-08 08:34:00,
2013-01-08 03:39:00,19.0,14.0,30.44,SW,225,0.0,-999.0,73,0.00,,,0.00,Rainwise IP-100,2013-01-08 08:39:00,
2013-01-08 03:44:00,20.0,14.0,30.43,SW,225,0.0,-999.0,73,0.00,,,0.00,Rainwise IP-100,2013-01-08 08:44:00,
2013-01-08 03:49:00,20.0,14.0,30.43,SW,225,0.0,-999.0,73,0.00,,,0.00,Rainwise IP-100,2013-01-08 08:49:00,
2013-01-08 03:55:00,20.0,14.0,30.43,SW,225,0.0,-999.0,73,0.00,,,0.00,Rainwise IP-100,2013-01-08 08:55:00,
2013-01-08 04:00:00,21.0,14.0,30.43,SW,225,0.0,-999.0,72,0.00,,,0.00,Rainwise IP-100,2013-01-08 09:00:00,
2013-01-08 04:05:00,23.0,16.0,30.42,West,270,0.0,-999.0,72,0.00,,,0.00,Rainwise IP-100,2013-01-08 09:05:00,
2013-01-08 04:12:00,24.0,16.0,30.42,SW,225,0.0,-999.0,69,0.00,,,0.00,Rainwise IP-100,2013-01-08 09:12:00,
2013-01-08 04:17:00,26.0,18.0,30.41,SSE,157,0.0,-999.0,69,0.00,,,0.00,Rainwise IP-100,2013-01-08 09:17:00,
2013-01-08 04:22:00,27.0,18.0,30.40,NNW,337,0.0,-999.0,68,0.00,,,0.00,Rainwise IP-100,2013-01-08 09:22:00,
2013-01-08 04:27:00,27.0,18.0,30.40,WSW,247,1.0,-999.0,68,0.00,,,0.00,Rainwise IP-100,2013-01-08 09:27:00,
2013-01-08 04:32:00,28.0,18.0,30.40,SE,135,0.0,-999.0,68,0.00,,,0.00,Rainwise IP-100,2013-01-08 09:32:00,
2013-01-08 04:37:00,29.0,21.0,30.39,West,270,0.0,-999.0,68,0.00,,,0.00,Rainwise IP-100,2013-01-08 09:37:00,
2013-01-08 04:42:00,29.0,21.0,30.39,WNW,292,1.0,-999.0,68,0.00,,,0.00,Rainwise IP-100,2013-01-08 09:42:00,
2013-01-08 04:47:00,30.0,23.0,30.39,NNW,337,0.0,-999.0,69,0.00,,,0.00,Rainwise IP-100,2013-01-08 09:47:00,
2013-01-08 04:52:00,30.0,23.0,30.39,ENE,67,1.0,-999.0,70,0.00,,,0.00,Rainwise IP-100,2013-01-08 09:52:00,
2013-01-08 04:57:00,31.0,23.0,30.39,SSW,202,0.0,-999.0,70,0.00,,,0.00,Rainwise IP-100,2013-01-08 09:57:00,
2013-01-08 05:02:00,31.0,23.0,30.39,West,270,0.0,-999.0,71,0.00,,,0.00,Rainwise IP-100,2013-01-08 10:02:00,
2013-01-08 05:07:00,31.0,23.0,30.40,SSE,157,0.0,-999.0,71,0.00,,,0.00,Rainwise IP-100,2013-01-08 10:07:00,
2013-01-08 05:12:00,32.0,24.0,30.40,SSW,202,0.0,-999.0,72,0.00,,,0.00,Rainwise IP-100,2013-01-08 10:12:00,
2013-01-08 05:17:00,32.0,24.0,30.40,NNW,337,3.0,-999.0,72,0.00,,,0.00,Rainwise IP-100,2013-01-08 10:17:00,
2013-01-08 05:22:00,32.0,24.0,30.39,NE,45,2.0,-999.0,72,0.00,,,0.00,Rainwise IP-100,2013-01-08 10:22:00,
2013-01-08 05:29:00,33.0,24.0,30.39,SSW,202,0.0,-999.0,71,0.00,,,0.00,Rainwise IP-100,2013-01-08 10:29:00,
2013-01-08 05:34:00,33.0,24.0,30.39,ESE,112,0.0,-999.0,71,0.00,,,0.00,Rainwise IP-100,2013-01-08 10:34:00,
2013-01-08 05:39:00,33.0,26.0,30.39,NE,45,0.0,-999.0,72,0.00,,,0.00,Rainwise IP-100,2013-01-08 10:39:00,
2013-01-08 05:44:00,33.0,26.0,30.39,NNW,337,3.0,-999.0,72,0.00,,,0.00,Rainwise IP-100,2013-01-08 10:44:00,
2013-01-08 05:49:00,34.0,26.0,30.39,West,270,3.0,-999.0,72,0.00,,,0.00,Rainwise IP-100,2013-01-08 10:49:00,
2013-01-08 05:54:00,34.0,26.0,30.39,NNW,337,0.0,-999.0,72,0.00,,,0.00,Rainwise IP-100,2013-01-08 10:54:00,
2013-01-08 05:59:00,34.0,26.0,30.39,WNW,292,0.0,-999.0,72,0.00,,,0.00,Rainwise IP-100,2013-01-08 10:59:00,
2013-01-08 06:04:00,34.0,26.0,30.39,North,360,3.0,-999.0,72,0.00,,,0.00,Rainwise IP-100,2013-01-08 11:04:00,
2013-01-08 06:09:00,34.0,26.0,30.39,ESE,112,2.0,-999.0,72,0.00,,,0.00,Rainwise IP-100,2013-01-08 11:09:00,
2013-01-08 06:14:00,34.0,26.0,30.39,North,360,3.0,-999.0,72,0.00,,,0.00,Rainwise IP-100,2013-01-08 11:14:00,
2013-01-08 06:19:00,35.0,26.0,30.40,WNW,292,1.0,-999.0,72,0.00,,,0.00,Rainwise IP-100,2013-01-08 11:19:00,
2013-01-08 06:24:00,35.0,26.0,30.40,WSW,247,0.0,-999.0,72,0.00,,,0.00,Rainwise IP-100,2013-01-08 11:24:00,
2013-01-08 06:29:00,35.0,26.0,30.40,WSW,247,5.0,-999.0,72,0.00,,,0.00,Rainwise IP-100,2013-01-08 11:29:00,
2013-01-08 06:34:00,35.0,26.0,30.40,NNE,22,0.0,-999.0,72,0.00,,,0.00,Rainwise IP-100,2013-01-08 11:34:00,
2013-01-08 06:39:00,34.0,26.0,30.40,West,270,0.0,-999.0,72,0.00,,,0.00,Rainwise IP-100,2013-01-08 11:39:00,
2013-01-08 06:44:00,35.0,26.0,30.40,SSW,202,1.0,-999.0,72,0.00,,,0.00,Rainwise IP-100,2013-01-08 11:44:00,
2013-01-08 06:49:00,35.0,26.0,30.39,SE,135,0.0,-999.0,72,0.00,,,0.00,Rainwise IP-100,2013-01-08 11:49:00,
2013-01-08 06:54:00,35.0,26.0,30.40,ESE,112,0.0,-999.0,72,0.00,,,0.00,Rainwise IP-100,2013-01-08 11:54:00,
2013-01-08 06:59:00,35.0,26.0,30.40,ENE,67,4.0,-999.0,72,0.00,,,0.00,Rainwise IP-100,2013-01-08 11:59:00,
2013-01-08 07:04:00,35.0,26.0,30.39,NNE,22,0.0,-999.0,72,0.00,,,0.00,Rainwise IP-100,2013-01-08 12:04:00,
2013-01-08 07:09:00,35.0,26.0,30.40,WSW,247,1.0,-999.0,72,0.00,,,0.00,Rainwise IP-100,2013-01-08 12:09:00,
2013-01-08 07:14:00,35.0,26.0,30.40,WSW,247,1.0,-999.0,72,0.00,,,0.00,Rainwise IP-100,2013-01-08 12:14:00,
2013-01-08 07:19:00,35.0,26.0,30.40,NNW,337,1.0,-999.0,72,0.00,,,0.00,Rainwise IP-100,2013-01-08 12:19:00,
2013-01-08 07:24:00,35.0,26.0,30.40,NNW,337,0.0,-999.0,72,0.00,,,0.00,Rainwise IP-100,2013-01-08 12:24:00,
2013-01-08 07:29:00,36.0,28.0,30.41,WNW,292,6.0,-999.0,72,0.00,,,0.00,Rainwise IP-100,2013-01-08 12:29:00,
2013-01-08 07:34:00,36.0,28.0,30.41,SSE,157,0.0,-999.0,72,0.00,,,0.00,Rainwise IP-100,2013-01-08 12:34:00,
2013-01-08 07:39:00,36.0,28.0,30.41,South,180,7.0,-999.0,72,0.00,,,0.00,Rainwise IP-100,2013-01-08 12:39:00,
2013-01-08 07:44:00,36.0,28.0,30.41,West,270,2.0,-999.0,72,0.00,,,0.00,Rainwise IP-100,2013-01-08 12:44:00,
2013-01-08 07:49:00,37.0,29.0,30.42,ENE,67,0.0,-999.0,72,0.00,,,0.00,Rainwise IP-100,2013-01-08 12:49:00,
2013-01-08 07:54:00,37.0,29.0,30.42,SSW,202,2.0,-999.0,72,0.00,,,0.00,Rainwise IP-100,2013-01-08 12:54:00,
2013-01-08 07:59:00,37.0,29.0,30.42,SSW,202,1.0,-999.0,72,0.00,,,0.00,Rainwise IP-100,2013-01-08 12:59:00,
2013-01-08 08:04:00,37.0,29.0,30.42,WSW,247,1.0,-999.0,72,0.00,,,0.00,Rainwise IP-100,2013-01-08 13:04:00,
2013-01-08 08:09:00,37.0,29.0,30.41,NNE,22,0.0,-999.0,72,0.00,,,0.00,Rainwise IP-100,2013-01-08 13:09:00,
2013-01-08 08:14:00,37.0,29.0,30.42,WNW,292,6.0,-999.0,72,0.00,,,0.00,Rainwise IP-100,2013-01-08 13:14:00,
2013-01-08 08:19:00,37.0,29.0,30.42,WNW,292,0.0,-999.0,72,0.00,,,0.00,Rainwise IP-100,2013-01-08 13:19:00,
2013-01-08 08:24:00,37.0,29.0,30.42,West,270,4.0,-999.0,72,0.00,,,0.01,Rainwise IP-100,2013-01-08 13:24:00,
2013-01-08 08:30:00,37.0,29.0,30.42,West,270,7.0,-999.0,72,0.06,,,0.01,Rainwise IP-100,2013-01-08 13:30:00,
2013-01-08 08:35:00,37.0,29.0,30.42,WSW,247,1.0,-999.0,72,0.00,,,0.01,Rainwise IP-100,2013-01-08 13:35:00,
2013-01-08 08:40:00,37.0,29.0,30.42,SSE,157,1.0,-999.0,72,0.00,,,0.01,Rainwise IP-100,2013-01-08 13:40:00,
2013-01-08 08:45:00,38.0,29.0,30.42,ESE,112,1.0,-999.0,71,0.00,,,0.01,Rainwise IP-100,2013-01-08 13:45:00,
2013-01-08 08:50:00,38.0,29.0,30.42,ESE,112,3.0,-999.0,71,0.00,,,0.01,Rainwise IP-100,2013-01-08 13:50:00,
2013-01-08 08:55:00,39.0,31.0,30.42,WNW,292,0.0,-999.0,71,0.00,,,0.01,Rainwise IP-100,2013-01-08 13:55:00,
2013-01-08 09:00:00,39.0,31.0,30.42,NE,45,0.0,-999.0,71,0.06,,,0.02,Rainwise IP-100,2013-01-08 14:00:00,
2013-01-08 09:05:00,39.0,31.0,30.42,SSW,202,7.0,-999.0,71,0.06,,,0.02,Rainwise IP-100,2013-01-08 14:05:00,
2013-01-08 09:10:00,39.0,31.0,30.43,WSW,247,6.0,-999.0,71,0.00,,,0.02,Rainwise IP-100,2013-01-08 14:10:00,
2013-01-08 09:15:00,39.0,31.0,30.42,WNW,292,0.0,-999.0,71,0.00,,,0.02,Rainwise IP-100,2013-01-08 14:15:00,
2013-01-08 09:20:00,39.0,31.0,30.42,WNW,292,1.0,-999.0,71,0.00,,,0.02,Rainwise IP-100,2013-01-08 14:20:00,
2013-01-08 09:25:00,39.0,31.0,30.43,SSW,202,6.0,-999.0,71,0.00,,,0.02,Rainwise IP-100,2013-01-08 14:25:00,
2013-01-08 09:30:00,39.0,31.0,30.42,NNW,337,0.0,-999.0,71,0.00,,,0.02,Rainwise IP-100,2013-01-08 14:30:00,
2013-01-08 09:35:00,39.0,31.0,30.43,WSW,247,6.0,-999.0,71,0.00,,,0.02,Rainwise IP-100,2013-01-08 14:35:00,
2013-01-08 09:40:00,39.0,31.0,30.43,WSW,247,6.0,-999.0,71,0.06,,,0.03,Rainwise IP-100,2013-01-08 14:40:00,
2013-01-08 09:45:00,39.0,31.0,30.43,WSW,247,3.0,-999.0,71,0.06,,,0.03,Rainwise IP-100,2013-01-08 14:45:00,
2013-01-08 09:51:00,38.0,29.0,30.43,WSW,247,3.0,-999.0,71,0.00,,,0.03,Rainwise IP-100,2013-01-08 14:51:00,
2013-01-08 09:56:00,39.0,31.0,30.43,SW,225,3.0,-999.0,71,0.00,,,0.03,Rainwise IP-100,2013-01-08 14:56:00,
2013-01-08 10:01:00,39.0,31.0,30.43,WSW,247,7.0,-999.0,71,0.00,,,0.03,Rainwise IP-100,2013-01-08 15:01:00,
2013-01-08 10:06:00,39.0,31.0,30.43,WSW,247,1.0,-999.0,71,0.00,,,0.03,Rainwise IP-100,2013-01-08 15:06:00,
2013-01-08 10:11:00,39.0,31.0,30.43,South,180,6.0,-999.0,71,0.00,,,0.03,Rainwise IP-100,2013-01-08 15:11:00,
2013-01-08 10:16:00,40.0,32.0,30.43,West,270,0.0,-999.0,71,0.00,,,0.03,Rainwise IP-100,2013-01-08 15:16:00,
2013-01-08 10:21:00,40.0,32.0,30.42,WSW,247,3.0,-999.0,71,0.00,,,0.03,Rainwise IP-100,2013-01-08 15:21:00,
2013-01-08 10:27:00,40.0,32.0,30.43,WNW,292,0.0,-999.0,71,0.00,,,0.03,Rainwise IP-100,2013-01-08 15:27:00,
2013-01-08 10:32:00,41.0,32.0,30.42,SSE,157,0.0,-999.0,71,0.00,,,0.03,Rainwise IP-100,2013-01-08 15:32:00,
2013-01-08 10:37:00,41.0,32.0,30.42,SSW,202,0.0,-999.0,71,0.00,,,0.03,Rainwise IP-100,2013-01-08 15:37:00,
2013-01-08 10:42:00,41.0,32.0,30.42,SE,135,2.0,-999.0,71,0.00,,,0.03,Rainwise IP-100,2013-01-08 15:42:00,
2013-01-08 10:47:00,41.0,32.0,30.42,North,360,0.0,-999.0,71,0.00,,,0.03,Rainwise IP-100,2013-01-08 15:47:00,
2013-01-08 10:52:00,41.0,32.0,30.42,WNW,292,2.0,-999.0,71,0.00,,,0.03,Rainwise IP-100,2013-01-08 15:52:00,
2013-01-08 10:57:00,41.0,32.0,30.41,East,90,0.0,-999.0,71,0.00,,,0.03,Rainwise IP-100,2013-01-08 15:57:00,
2013-01-08 11:02:00,41.0,32.0,30.41,SE,135,3.0,-999.0,71,0.00,,,0.03,Rainwise IP-100,2013-01-08 16:02:00,
2013-01-08 11:07:00,41.0,32.0,30.41,WSW,247,3.0,-999.0,71,0.00,,,0.03,Rainwise IP-100,2013-01-08 16:07:00,
2013-01-08 11:12:00,42.0,33.0,30.41,NNW,337,0.0,-999.0,71,0.00,,,0.03,Rainwise IP-100,2013-01-08 16:12:00,
2013-01-08 11:17:00,41.0,32.0,30.40,WSW,247,6.0,-999.0,71,0.00,,,0.03,Rainwise IP-100,2013-01-08 16:17:00,
2013-01-08 11:23:00,40.0,32.0,30.40,ESE,112,0.0,-999.0,71,0.00,,,0.03,Rainwise IP-100,2013-01-08 16:23:00,
2013-01-08 11:28:00,39.0,31.0,30.40,NNW,337,4.0,-999.0,71,0.00,,,0.03,Rainwise IP-100,2013-01-08 16:28:00,
2013-01-08 11:33:00,39.0,31.0,30.39,NW,315,1.0,-999.0,71,0.00,,,0.03,Rainwise IP-100,2013-01-08 16:33:00,
2013-01-08 11:38:00,39.0,31.0,30.39,NNW,337,0.0,-999.0,71,0.00,,,0.03,Rainwise IP-100,2013-01-08 16:38:00,
2013-01-08 11:43:00,38.0,29.0,30.39,SW,225,1.0,-999.0,71,0.00,,,0.03,Rainwise IP-100,2013-01-08 16:43:00,
2013-01-08 11:48:00,38.0,29.0,30.39,North,360,0.0,-999.0,71,0.00,,,0.03,Rainwise IP-100,2013-01-08 16:48:00,
2013-01-08 11:53:00,38.0,29.0,30.39,NNW,337,4.0,-999.0,71,0.00,,,0.03,Rainwise IP-100,2013-01-08 16:53:00,
2013-01-08 11:58:00,38.0,29.0,30.39,SSW,202,1.0,-999.0,71,0.00,,,0.03,Rainwise IP-100,2013-01-08 16:58:00,
2013-01-08 12:03:00,38.0,29.0,30.38,West,270,5.0,-999.0,71,0.00,,,0.03,Rainwise IP-100,2013-01-08 17:03:00,
2013-01-08 12:08:00,38.0,29.0,30.38,WSW,247,1.0,-999.0,71,0.00,,,0.03,Rainwise IP-100,2013-01-08 17:08:00,
2013-01-08 12:13:00,38.0,29.0,30.38,North,360,1.0,-999.0,71,0.00,,,0.03,Rainwise IP-100,2013-01-08 17:13:00,
2013-01-08 12:18:00,38.0,29.0,30.38,SE,135,0.0,-999.0,71,0.00,,,0.03,Rainwise IP-100,2013-01-08 17:18:00,
2013-01-08 12:23:00,38.0,29.0,30.38,WSW,247,0.0,-999.0,71,0.00,,,0.03,Rainwise IP-100,2013-01-08 17:23:00,
2013-01-08 12:28:00,38.0,29.0,30.38,WNW,292,0.0,-999.0,71,0.00,,,0.03,Rainwise IP-100,2013-01-08 17:28:00,
2013-01-08 12:33:00,38.0,29.0,30.38,WNW,292,0.0,-999.0,71,0.00,,,0.03,Rainwise IP-100,2013-01-08 17:33:00,
2013-01-08 12:38:00,38.0,29.0,30.38,WNW,292,0.0,-999.0,71,0.00,,,0.03,Rainwise IP-100,2013-01-08 17:38:00,
2013-01-08 12:43:00,38.0,29.0,30.38,SSE,157,0.0,-999.0,71,0.00,,,0.03,Rainwise IP-100,2013-01-08 17:43:00,
2013-01-08 12:48:00,38.0,29.0,30.38,WSW,247,0.0,-999.0,71,0.00,,,0.03,Rainwise IP-100,2013-01-08 17:48:00,
2013-01-08 12:53:00,38.0,29.0,30.38,West,270,1.0,-999.0,71,0.00,,,0.03,Rainwise IP-100,2013-01-08 17:53:00,
2013-01-08 12:59:00,37.0,29.0,30.38,WSW,247,0.0,-999.0,72,0.00,,,0.03,Rainwise IP-100,2013-01-08 17:59:00,
2013-01-08 13:04:00,37.0,29.0,30.38,WNW,292,0.0,-999.0,72,0.00,,,0.03,Rainwise IP-100,2013-01-08 18:04:00,
2013-01-08 13:09:00,38.0,29.0,30.38,East,90,0.0,-999.0,71,0.00,,,0.03,Rainwise IP-100,2013-01-08 18:09:00,
2013-01-08 13:14:00,37.0,29.0,30.38,NW,315,0.0,-999.0,72,0.00,,,0.03,Rainwise IP-100,2013-01-08 18:14:00,
2013-01-08 13:19:00,37.0,29.0,30.38,SSE,157,0.0,-999.0,72,0.00,,,0.03,Rainwise IP-100,2013-01-08 18:19:00,
2013-01-08 13:24:00,38.0,29.0,30.38,SSW,202,0.0,-999.0,71,0.00,,,0.03,Rainwise IP-100,2013-01-08 18:24:00,
2013-01-08 13:29:00,38.0,29.0,30.38,SW,225,0.0,-999.0,71,0.00,,,0.03,Rainwise IP-100,2013-01-08 18:29:00,
2013-01-08 13:34:00,38.0,29.0,30.39,WSW,247,1.0,-999.0,71,0.00,,,0.03,Rainwise IP-100,2013-01-08 18:34:00,
2013-01-08 13:39:00,38.0,29.0,30.39,SSW,202,0.0,-999.0,71,0.00,,,0.03,Rainwise IP-100,2013-01-08 18:39:00,
2013-01-08 13:44:00,38.0,29.0,30.39,SSW,202,1.0,-999.0,71,0.00,,,0.03,Rainwise IP-100,2013-01-08 18:44:00,
2013-01-08 13:49:00,37.0,29.0,30.39,WNW,292,0.0,-999.0,72,0.00,,,0.03,Rainwise IP-100,2013-01-08 18:49:00,
2013-01-08 13:54:00,37.0,29.0,30.39,WSW,247,0.0,-999.0,72,0.00,,,0.03,Rainwise IP-100,2013-01-08 18:54:00,
2013-01-08 13:59:00,37.0,29.0,30.39,WSW,247,6.0,-999.0,72,0.00,,,0.03,Rainwise IP-100,2013-01-08 18:59:00,
2013-01-08 14:04:00,37.0,29.0,30.39,WNW,292,2.0,-999.0,72,0.00,,,0.03,Rainwise IP-100,2013-01-08 19:04:00,
2013-01-08 14:09:00,37.0,29.0,30.39,NW,315,0.0,-999.0,72,0.00,,,0.03,Rainwise IP-100,2013-01-08 19:09:00,
2013-01-08 14:14:00,36.0,28.0,30.40,West,270,0.0,-999.0,72,0.00,,,0.03,Rainwise IP-100,2013-01-08 19:14:00,
2013-01-08 14:19:00,36.0,28.0,30.40,WNW,292,0.0,-999.0,72,0.00,,,0.03,Rainwise IP-100,2013-01-08 19:19:00,
2013-01-08 14:24:00,36.0,28.0,30.40,WNW,292,1.0,-999.0,72,0.00,,,0.03,Rainwise IP-100,2013-01-08 19:24:00,
2013-01-08 14:29:00,36.0,28.0,30.40,WNW,292,0.0,-999.0,72,0.00,,,0.03,Rainwise IP-100,2013-01-08 19:29:00,
2013-01-08 14:36:00,36.0,28.0,30.40,NW,315,0.0,-999.0,72,0.00,,,0.03,Rainwise IP-100,2013-01-08 19:36:00,
2013-01-08 14:41:00,36.0,28.0,30.41,NW,315,0.0,-999.0,72,0.00,,,0.03,Rainwise IP-100,2013-01-08 19:41:00,
2013-01-08 14:46:00,36.0,28.0,30.41,NW,315,0.0,-999.0,72,0.00,,,0.03,Rainwise IP-100,2013-01-08 19:46:00,
2013-01-08 14:51:00,35.0,26.0,30.41,WNW,292,0.0,-999.0,72,0.00,,,0.03,Rainwise IP-100,2013-01-08 19:51:00,
2013-01-08 14:56:00,35.0,26.0,30.41,WNW,292,0.0,-999.0,72,0.00,,,0.03,Rainwise IP-100,2013-01-08 19:56:00,
2013-01-08 15:01:00,35.0,26.0,30.41,WNW,292,0.0,-999.0,72,0.00,,,0.03,Rainwise IP-100,2013-01-08 20:01:00,
2013-01-08 15:06:00,35.0,26.0,30.41,NW,315,0.0,-999.0,72,0.00,,,0.03,Rainwise IP-100,2013-01-08 20:06:00,
2013-01-08 15:11:00,34.0,26.0,30.41,NW,315,0.0,-999.0,72,0.00,,,0.03,Rainwise IP-100,2013-01-08 20:11:00,
2013-01-08 15:16:00,34.0,26.0,30.41,NW,315,0.0,-999.0,72,0.00,,,0.03,Rainwise IP-100,2013-01-08 20:16:00,
2013-01-08 15:21:00,34.0,26.0,30.41,NW,315,0.0,-999.0,72,0.00,,,0.03,Rainwise IP-100,2013-01-08 20:21:00,
2013-01-08 15:26:00,33.0,26.0,30.41,WSW,247,0.0,-999.0,72,0.00,,,0.03,Rainwise IP-100,2013-01-08 20:26:00,
2013-01-08 15:31:00,33.0,26.0,30.41,WSW,247,0.0,-999.0,72,0.00,,,0.03,Rainwise IP-100,2013-01-08 20:31:00,
2013-01-08 15:36:00,33.0,26.0,30.42,WSW,247,0.0,-999.0,72,0.00,,,0.03,Rainwise IP-100,2013-01-08 20:36:00,
2013-01-08 15:41:00,32.0,24.0,30.42,WSW,247,0.0,-999.0,73,0.00,,,0.03,Rainwise IP-100,2013-01-08 20:41:00,
2013-01-08 15:46:00,32.0,24.0,30.42,WSW,247,0.0,-999.0,73,0.00,,,0.03,Rainwise IP-100,2013-01-08 20:46:00,
2013-01-08 15:51:00,32.0,24.0,30.42,WSW,247,0.0,-999.0,73,0.00,,,0.03,Rainwise IP-100,2013-01-08 20:51:00,
2013-01-08 15:56:00,32.0,24.0,30.43,WSW,247,0.0,-999.0,73,0.00,,,0.03,Rainwise IP-100,2013-01-08 20:56:00,
2013-01-08 16:01:00,32.0,24.0,30.43,WSW,247,0.0,-999.0,73,0.00,,,0.03,Rainwise IP-100,2013-01-08 21:01:00,
2013-01-08 16:06:00,31.0,23.0,30.43,WSW,247,0.0,-999.0,73,0.00,,,0.03,Rainwise IP-100,2013-01-08 21:06:00,
2013-01-08 16:11:00,31.0,23.0,30.43,WSW,247,0.0,-999.0,73,0.00,,,0.03,Rainwise IP-100,2013-01-08 21:11:00,
2013-01-08 16:16:00,30.0,23.0,30.43,WSW,247,0.0,-999.0,73,0.00,,,0.03,Rainwise IP-100,2013-01-08 21:16:00,
2013-01-08 16:21:00,30.0,23.0,30.43,WSW,247,0.0,-999.0,73,0.00,,,0.03,Rainwise IP-100,2013-01-08 21:21:00,
2013-01-08 16:26:00,30.0,23.0,30.44,WSW,247,0.0,-999.0,73,0.00,,,0.03,Rainwise IP-100,2013-01-08 21:26:00,
2013-01-08 16:31:00,30.0,23.0,30.43,WSW,247,0.0,-999.0,73,0.00,,,0.03,Rainwise IP-100,2013-01-08 21:31:00,
2013-01-08 16:36:00,30.0,23.0,30.43,WSW,247,0.0,-999.0,73,0.00,,,0.03,Rainwise IP-100,2013-01-08 21:36:00,
2013-01-08 16:41:00,29.0,23.0,30.43,WSW,247,0.0,-999.0,73,0.00,,,0.03,Rainwise IP-100,2013-01-08 21:41:00,
2013-01-08 16:46:00,29.0,23.0,30.44,WSW,247,0.0,-999.0,73,0.00,,,0.03,Rainwise IP-100,2013-01-08 21:46:00,
2013-01-08 16:51:00,29.0,23.0,30.44,WSW,247,0.0,-999.0,73,0.00,,,0.03,Rainwise IP-100,2013-01-08 21:51:00,
2013-01-08 16:56:00,29.0,23.0,30.44,WSW,247,0.0,-999.0,73,0.00,,,0.03,Rainwise IP-100,2013-01-08 21:56:00,
2013-01-08 17:01:00,29.0,23.0,30.45,WSW,247,0.0,-999.0,73,0.00,,,0.03,Rainwise IP-100,2013-01-08 22:01:00,
2013-01-08 17:06:00,29.0,23.0,30.45,WSW,247,0.0,-999.0,73,0.00,,,0.03,Rainwise IP-100,2013-01-08 22:06:00,
2013-01-08 17:11:00,28.0,21.0,30.44,WSW,247,0.0,-999.0,73,0.00,,,0.03,Rainwise IP-100,2013-01-08 22:11:00,
2013-01-08 17:16:00,28.0,21.0,30.44,WSW,247,0.0,-999.0,73,0.00,,,0.03,Rainwise IP-100,2013-01-08 22:16:00,
2013-01-08 17:21:00,27.0,21.0,30.44,WSW,247,0.0,-999.0,73,0.00,,,0.03,Rainwise IP-100,2013-01-08 22:21:00,
2013-01-08 17:26:00,27.0,21.0,30.45,WSW,247,0.0,-999.0,73,0.00,,,0.03,Rainwise IP-100,2013-01-08 22:26:00,
2013-01-08 17:31:00,27.0,21.0,30.45,WSW,247,0.0,-999.0,73,0.00,,,0.03,Rainwise IP-100,2013-01-08 22:31:00,
2013-01-08 17:36:00,28.0,21.0,30.45,WSW,247,0.0,-999.0,73,0.00,,,0.03,Rainwise IP-100,2013-01-08 22:36:00,
2013-01-08 17:41:00,28.0,21.0,30.45,WSW,247,0.0,-999.0,73,0.00,,,0.03,Rainwise IP-100,2013-01-08 22:41:00,
2013-01-08 17:46:00,28.0,21.0,30.45,WSW,247,0.0,-999.0,73,0.00,,,0.03,Rainwise IP-100,2013-01-08 22:46:00,
2013-01-08 17:51:00,28.0,21.0,30.46,WSW,247,0.0,-999.0,73,0.00,,,0.03,Rainwise IP-100,2013-01-08 22:51:00,
2013-01-08 17:57:00,27.0,21.0,30.46,WSW,247,0.0,-999.0,73,0.00,,,0.03,Rainwise IP-100,2013-01-08 22:57:00,
2013-01-08 18:02:00,27.0,21.0,30.46,WSW,247,0.0,-999.0,73,0.00,,,0.03,Rainwise IP-100,2013-01-08 23:02:00,
2013-01-08 18:07:00,27.0,21.0,30.46,WSW,247,0.0,-999.0,73,0.00,,,0.03,Rainwise IP-100,2013-01-08 23:07:00,
2013-01-08 18:12:00,28.0,21.0,30.47,WSW,247,0.0,-999.0,73,0.00,,,0.03,Rainwise IP-100,2013-01-08 23:12:00,
2013-01-08 18:17:00,28.0,21.0,30.47,WSW,247,0.0,-999.0,73,0.00,,,0.03,Rainwise IP-100,2013-01-08 23:17:00,
2013-01-08 18:22:00,27.0,21.0,30.47,WSW,247,0.0,-999.0,73,0.00,,,0.03,Rainwise IP-100,2013-01-08 23:22:00,
2013-01-08 18:27:00,26.0,18.0,30.47,WSW,247,0.0,-999.0,74,0.00,,,0.03,Rainwise IP-100,2013-01-08 23:27:00,
2013-01-08 18:33:00,27.0,21.0,30.47,WSW,247,0.0,-999.0,73,0.00,,,0.03,Rainwise IP-100,2013-01-08 23:33:00,
2013-01-08 18:38:00,26.0,18.0,30.47,WSW,247,0.0,-999.0,74,0.00,,,0.03,Rainwise IP-100,2013-01-08 23:38:00,
2013-01-08 18:43:00,26.0,18.0,30.48,WSW,247,0.0,-999.0,74,0.00,,,0.03,Rainwise IP-100,2013-01-08 23:43:00,
2013-01-08 18:48:00,26.0,18.0,30.48,WSW,247,0.0,-999.0,74,0.00,,,0.03,Rainwise IP-100,2013-01-08 23:48:00,
2013-01-08 18:53:00,26.0,18.0,30.48,WSW,247,0.0,-999.0,74,0.00,,,0.03,Rainwise IP-100,2013-01-08 23:53:00,
2013-01-08 18:58:00,25.0,18.0,30.49,WSW,247,0.0,-999.0,74,0.00,,,0.03,Rainwise IP-100,2013-01-08 23:58:00,
2013-01-08 19:03:00,25.0,18.0,30.49,WSW,247,0.0,-999.0,74,0.00,,,0.03,Rainwise IP-100,2013-01-09 00:03:00,
2013-01-08 19:08:00,25.0,18.0,30.49,WSW,247,0.0,-999.0,74,0.00,,,0.03,Rainwise IP-100,2013-01-09 00:08:00,
2013-01-08 19:13:00,25.0,18.0,30.49,WSW,247,0.0,-999.0,74,0.00,,,0.03,Rainwise IP-100,2013-01-09 00:13:00,
2013-01-08 19:18:00,26.0,18.0,30.50,WSW,247,0.0,-999.0,74,0.00,,,0.03,Rainwise IP-100,2013-01-09 00:18:00,
2013-01-08 19:23:00,25.0,18.0,30.50,WSW,247,0.0,-999.0,74,0.00,,,0.03,Rainwise IP-100,2013-01-09 00:23:00,
2013-01-08 19:28:00,25.0,18.0,30.50,WSW,247,0.0,-999.0,74,0.00,,,0.03,Rainwise IP-100,2013-01-09 00:28:00,
2013-01-08 19:33:00,26.0,18.0,30.50,WSW,247,0.0,-999.0,74,0.00,,,0.03,Rainwise IP-100,2013-01-09 00:33:00,
2013-01-08 19:38:00,26.0,18.0,30.50,WSW,247,0.0,-999.0,74,0.00,,,0.03,Rainwise IP-100,2013-01-09 00:38:00,
2013-01-08 19:43:00,26.0,18.0,30.50,WSW,247,0.0,-999.0,74,0.00,,,0.03,Rainwise IP-100,2013-01-09 00:43:00,
2013-01-08 19:48:00,25.0,18.0,30.50,WSW,247,0.0,-999.0,74,0.00,,,0.03,Rainwise IP-100,2013-01-09 00:48:00,
2013-01-08 19:53:00,25.0,18.0,30.50,WSW,247,0.0,-999.0,74,0.00,,,0.03,Rainwise IP-100,2013-01-09 00:53:00,
2013-01-08 19:58:00,25.0,18.0,30.50,WSW,247,0.0,-999.0,74,0.00,,,0.03,Rainwise IP-100,2013-01-09 00:58:00,
2013-01-08 20:03:00,24.0,18.0,30.50,WSW,247,0.0,-999.0,74,0.00,,,0.03,Rainwise IP-100,2013-01-09 01:03:00,
2013-01-08 20:08:00,24.0,18.0,30.50,WSW,247,0.0,-999.0,74,0.00,,,0.03,Rainwise IP-100,2013-01-09 01:08:00,
2013-01-08 20:13:00,24.0,18.0,30.50,WSW,247,0.0,-999.0,74,0.00,,,0.03,Rainwise IP-100,2013-01-09 01:13:00,
2013-01-08 20:18:00,24.0,18.0,30.51,WSW,247,0.0,-999.0,74,0.00,,,0.03,Rainwise IP-100,2013-01-09 01:18:00,
2013-01-08 20:23:00,24.0,18.0,30.51,WSW,247,0.0,-999.0,74,0.00,,,0.03,Rainwise IP-100,2013-01-09 01:23:00,
2013-01-08 20:28:00,24.0,18.0,30.51,WSW,247,0.0,-999.0,74,0.00,,,0.03,Rainwise IP-100,2013-01-09 01:28:00,
2013-01-08 20:33:00,24.0,18.0,30.51,WSW,247,0.0,-999.0,74,0.00,,,0.03,Rainwise IP-100,2013-01-09 01:33:00,
2013-01-08 20:38:00,24.0,18.0,30.51,WSW,247,0.0,-999.0,74,0.00,,,0.03,Rainwise IP-100,2013-01-09 01:38:00,
2013-01-08 20:43:00,25.0,18.0,30.51,WSW,247,0.0,-999.0,74,0.00,,,0.03,Rainwise IP-100,2013-01-09 01:43:00,
2013-01-08 20:48:00,25.0,18.0,30.51,WSW,247,0.0,-999.0,74,0.00,,,0.03,Rainwise IP-100,2013-01-09 01:48:00,
2013-01-08 20:53:00,25.0,18.0,30.51,WSW,247,0.0,-999.0,74,0.00,,,0.03,Rainwise IP-100,2013-01-09 01:53:00,
2013-01-08 20:58:00,25.0,18.0,30.52,NW,315,0.0,-999.0,74,0.00,,,0.03,Rainwise IP-100,2013-01-09 01:58:00,
2013-01-08 21:03:00,24.0,18.0,30.51,NW,315,0.0,-999.0,74,0.00,,,0.03,Rainwise IP-100,2013-01-09 02:03:00,
2013-01-08 21:09:00,24.0,18.0,30.52,NW,315,0.0,-999.0,74,0.00,,,0.03,Rainwise IP-100,2013-01-09 02:09:00,
2013-01-08 21:14:00,24.0,18.0,30.52,NW,315,0.0,-999.0,74,0.00,,,0.03,Rainwise IP-100,2013-01-09 02:14:00,
2013-01-08 21:19:00,24.0,18.0,30.52,NW,315,2.0,-999.0,74,0.00,,,0.03,Rainwise IP-100,2013-01-09 02:19:00,
2013-01-08 21:24:00,24.0,18.0,30.52,NW,315,0.0,-999.0,74,0.00,,,0.03,Rainwise IP-100,2013-01-09 02:24:00,
2013-01-08 21:29:00,24.0,18.0,30.52,NNW,337,0.0,-999.0,74,0.00,,,0.03,Rainwise IP-100,2013-01-09 02:29:00,
2013-01-08 21:34:00,23.0,16.0,30.52,NNW,337,0.0,-999.0,74,0.00,,,0.03,Rainwise IP-100,2013-01-09 02:34:00,
2013-01-08 21:39:00,23.0,16.0,30.52,NW,315,0.0,-999.0,73,0.00,,,0.03,Rainwise IP-100,2013-01-09 02:39:00,
2013-01-08 21:44:00,23.0,16.0,30.52,NW,315,0.0,-999.0,73,0.00,,,0.03,Rainwise IP-100,2013-01-09 02:44:00,
2013-01-08 21:49:00,24.0,16.0,30.52,NW,315,0.0,-999.0,73,0.00,,,0.03,Rainwise IP-100,2013-01-09 02:49:00,
2013-01-08 21:54:00,24.0,16.0,30.53,NW,315,0.0,-999.0,73,0.00,,,0.03,Rainwise IP-100,2013-01-09 02:54:00,
2013-01-08 21:59:00,23.0,16.0,30.53,NW,315,0.0,-999.0,74,0.00,,,0.03,Rainwise IP-100,2013-01-09 02:59:00,
2013-01-08 22:04:00,23.0,16.0,30.53,NW,315,0.0,-999.0,74,0.00,,,0.03,Rainwise IP-100,2013-01-09 03:04:00,
2013-01-08 22:09:00,24.0,16.0,30.54,NW,315,0.0,-999.0,73,0.00,,,0.03,Rainwise IP-100,2013-01-09 03:09:00,
2013-01-08 22:14:00,24.0,18.0,30.54,NW,315,0.0,-999.0,74,0.00,,,0.03,Rainwise IP-100,2013-01-09 03:14:00,
2013-01-08 22:19:00,24.0,18.0,30.53,NW,315,0.0,-999.0,74,0.00,,,0.03,Rainwise IP-100,2013-01-09 03:19:00,
2013-01-08 22:24:00,25.0,18.0,30.54,NW,315,0.0,-999.0,74,0.00,,,0.03,Rainwise IP-100,2013-01-09 03:24:00,
2013-01-08 22:29:00,24.0,18.0,30.54,NW,315,0.0,-999.0,74,0.00,,,0.03,Rainwise IP-100,2013-01-09 03:29:00,
2013-01-08 22:34:00,24.0,18.0,30.54,NW,315,0.0,-999.0,74,0.00,,,0.03,Rainwise IP-100,2013-01-09 03:34:00,
2013-01-08 22:39:00,24.0,18.0,30.54,NW,315,0.0,-999.0,74,0.00,,,0.03,Rainwise IP-100,2013-01-09 03:39:00,
2013-01-08 22:44:00,24.0,18.0,30.54,NW,315,0.0,-999.0,74,0.00,,,0.03,Rainwise IP-100,2013-01-09 03:44:00,
2013-01-08 22:50:00,24.0,18.0,30.54,NW,315,0.0,-999.0,74,0.00,,,0.03,Rainwise IP-100,2013-01-09 03:50:00,
2013-01-08 22:55:00,24.0,18.0,30.54,NW,315,0.0,-999.0,74,0.00,,,0.03,Rainwise IP-100,2013-01-09 03:55:00,
2013-01-08 23:00:00,24.0,18.0,30.54,NW,315,0.0,-999.0,74,0.00,,,0.03,Rainwise IP-100,2013-01-09 04:00:00,
2013-01-08 23:05:00,25.0,18.0,30.54,NW,315,0.0,-999.0,74,0.00,,,0.03,Rainwise IP-100,2013-01-09 04:05:00,
2013-01-08 23:10:00,25.0,18.0,30.54,NW,315,0.0,-999.0,74,0.00,,,0.03,Rainwise IP-100,2013-01-09 04:10:00,
2013-01-08 23:16:00,25.0,18.0,30.54,NW,315,0.0,-999.0,74,0.00,,,0.03,Rainwise IP-100,2013-01-09 04:16:00,
2013-01-08 23:21:00,24.0,18.0,30.54,NW,315,0.0,-999.0,74,0.00,,,0.03,Rainwise IP-100,2013-01-09 04:21:00,
2013-01-08 23:26:00,24.0,18.0,30.54,NW,315,0.0,-999.0,74,0.00,,,0.03,Rainwise IP-100,2013-01-09 04:26:00,
2013-01-08 23:31:00,24.0,18.0,30.54,NW,315,0.0,-999.0,74,0.00,,,0.03,Rainwise IP-100,2013-01-09 04:31:00,
2013-01-08 23:36:00,23.0,16.0,30.54,NW,315,0.0,-999.0,74,0.00,,,0.03,Rainwise IP-100,2013-01-09 04:36:00,
2013-01-08 23:41:00,24.0,18.0,30.53,NW,315,0.0,-999.0,74,0.00,,,0.03,Rainwise IP-100,2013-01-09 04:41:00,
2013-01-08 23:46:00,26.0,18.0,30.53,West,270,0.0,-999.0,74,0.00,,,0.03,Rainwise IP-100,2013-01-09 04:46:00,
2013-01-08 23:51:00,26.0,18.0,30.53,West,270,1.0,-999.0,74,0.00,,,0.03,Rainwise IP-100,2013-01-09 04:51:00,
2013-01-08 23:56:00,26.0,18.0,30.53,WNW,292,0.0,-999.0,74,0.00,,,0.03,Rainwise IP-100,2013-01-09 04:56:00,